User: anonymous   Login
Location: Plzen
(49.7500°N, 13.3670°E)
Time: 15:30:34
(UTC+02:00)
Language:

ISS - Orbit

View from above orbital plane
View from above orbital plane
View from above satellite
View from above satellite

Ground track
Ground track

The orbit data is extracted from the following two-line orbital elements,

1 25544U 98067A   22269.29913644  .00009910  00000-0  17955-3 0  9998
2 25544  51.6427 195.6388 0002460 295.3569 202.3641 15.50293448360860
Epoch (UTC): 26 September 2022 07:10:45
Eccentricity: 0.0002460
inclination: 51.6427°
perigee height: 414 km
apogee height: 417 km
right ascension of ascending node: 195.6388°
argument of perigee: 295.3569°
revolutions per day: 15.50293448
mean anomaly at epoch: 202.3641°
orbit number at epoch: 36086

The dashed part of the orbit path shows where the satellite is in the earth's shadow,  

DLR